[[{"header":{"parameterUnit":"m.s-1","parameterCategory":1,"la1":30.2992,"la2":30.254,"lo1":-89.0895,"lo2":-89.0443,"dy":0.0025,"dx":0.0025,"nx":19,"ny":19,"refTime":"2026-04-24T21:00:00:Z","depth":0,"parameterNumber":2,"parameterNumberName":"U-component_of_WINDS"},"data":[0,0,0,-3.0208,-3.021,-3.0329,-3.033,-3.0473,-3.0474,0,0,0,0,0,0,0,0,0,0,0,-3.0168,-3.0169,-3.0207,-3.021,-3.0329,-3.033,-3.0473,-3.0474,0,0,0,0,0,0,0,0,0,0,0,-3.0168,-3.0169,-3.017,-3.0211,-3.0329,-3.033,-3.0472,-3.0385,0,0,0,0,0,0,0,0,0,0,-3.0271,-3.0231,-3.0169,-3.017,-3.0211,-3.0329,-3.033,-3.0381,-3.0391,-3.0415,0,-3.0437,0,-3.0458,-3.0483,-3.0484,0,0,0,-3.0213,-3.0223,-3.0259,-3.017,-3.0212,-3.0329,-3.0276,-3.0387,-3.0397,-3.0428,-3.044,-3.0445,-3.0461,-3.0484,-3.0485,-3.0621,-3.0621,0,0,-3.0206,-3.0187,-3.0252,-3.0266,-3.0249,-3.0273,-3.028,-3.0393,-3.0404,-3.044,-3.0449,-3.0463,-3.0485,-3.0486,-3.062,-3.0621,0,0,0,-3.0186,-3.0182,-3.0216,-3.026,-3.0282,-3.0276,-3.0285,-3.0399,-3.0412,-3.045,-3.0465,-3.0486,-3.0487,-3.062,-3.0621,-3.0626,0,0,0,-3.0182,-3.017,-3.0213,-3.0202,-3.028,-3.0343,-3.0288,-3.0404,-3.0417,-3.0464,-3.0486,-3.0489,-3.0619,-3.062,-3.0625,-3.0632,0,0,0,-3.0162,-3.0168,-3.0184,-3.0201,-3.0252,-3.0341,-3.036,-3.0407,-3.0426,-3.0484,-3.0489,-3.0619,-3.062,-3.0624,-3.063,-3.066,0,0,0,-3.0134,-3.0188,-3.0184,-3.0249,-3.0251,-3.0345,-3.036,-3.0431,-3.0482,-3.0486,-3.0619,-3.062,-3.0624,-3.0629,-3.0659,-3.0681,-3.069,0,0,-3.0191,-3.0194,-3.0234,-3.0234,-3.0324,-3.0329,-3.0419,-3.0483,-3.0506,-3.0581,-3.0584,-3.0626,-3.063,-3.066,-3.0746,-3.0752,0,0,0,-3.0245,-3.0273,-3.0301,-3.0349,-3.04,-3.0444,-3.0496,-3.052,-3.0584,-3.0541,-3.0647,-3.065,-3.0668,-3.068,-3.0685,-3.0701,-3.0626,-3.0626,-3.0625,-3.0295,-3.0323,-3.039,-3.0431,-3.0477,-3.0531,-3.057,-3.0611,-3.0624,-3.0649,-3.067,-3.0719,-3.0732,-3.0736,-3.0753,-3.0686,-3.0686,-3.0686,-3.0686,-3.0378,-3.0421,-3.0439,-3.0511,-3.0538,-3.0598,-3.0652,-3.0659,-3.0717,-3.0705,-3.0723,-3.0705,-3.0742,-3.0758,-3.0687,-3.0687,-3.0687,-3.0687,-3.0687,-3.0412,-3.0437,-3.0467,-3.0538,-3.059,-3.063,-3.0686,-3.071,-3.0732,-3.075,-3.0774,-3.0774,-3.0775,-3.076,-3.0761,-3.0761,-3.0761,-3.0761,-3.0761,-3.0435,-3.0468,-3.0512,-3.0571,-3.0605,-3.0652,-3.0707,-3.074,-3.0782,-3.0795,-3.0795,-3.0804,-3.0742,-3.0724,-3.0764,-3.0763,-3.0763,-3.0763,-3.0762,-3.0505,-3.0493,-3.0561,-3.0595,-3.0666,-3.0715,-3.0745,-3.0811,-3.0842,-3.0867,-3.0874,-3.0825,-3.0829,-3.0825,-3.081,-3.087,-3.087,-3.087,-3.087,-3.0531,-3.0537,-3.0612,-3.0663,-3.0717,-3.0752,-3.0826,-3.0869,-3.0912,-3.0932,-3.0928,-3.0911,-3.0906,-3.0913,-3.0907,-3.0893,-3.0973,-3.0973,-3.0973,-3.0575,-3.0586,-3.0645,-3.0688,-3.0746,-3.0794,-3.0864,-3.0921,-3.0967,-3.0977,-3.0948,-3.0943,-3.0917,-3.0908,-3.0915,-3.0905,-3.0881,0,0]},{"header":{"parameterUnit":"m.s-1","parameterCategory":1,"la1":30.2992,"la2":30.254,"lo1":-89.0895,"lo2":-89.0443,"dy":0.0025,"dx":0.0025,"nx":19,"ny":19,"refTime":"2026-04-24T21:00:00:Z","depth":0,"parameterNumber":3,"parameterNumberName":"V-component_of_WINDS"},"data":[0,0,0,5.5568,5.5571,5.5752,5.5753,5.597,5.5971,0,0,0,0,0,0,0,0,0,0,0,5.5507,5.5509,5.5567,5.5572,5.5752,5.5753,5.5969,5.5971,0,0,0,0,0,0,0,0,0,0,0,5.5507,5.5508,5.551,5.5572,5.5752,5.5753,5.5969,5.5837,0,0,0,0,0,0,0,0,0,0,5.5664,5.5602,5.5508,5.551,5.5573,5.5751,5.5753,5.5831,5.5845,5.5883,0,5.5915,0,5.5947,5.5985,5.5986,0,0,0,5.5576,5.559,5.5645,5.551,5.5575,5.5751,5.5672,5.5839,5.5855,5.5902,5.5918,5.5927,5.595,5.5987,5.5988,5.6191,5.6191,0,0,5.5566,5.5536,5.5634,5.5656,5.5628,5.5666,5.5677,5.5849,5.5865,5.5919,5.5932,5.5954,5.5988,5.599,5.619,5.6191,0,0,0,5.5535,5.5528,5.558,5.5646,5.568,5.5671,5.5684,5.5857,5.5877,5.5934,5.5957,5.5989,5.5992,5.6189,5.619,5.6197,0,0,0,5.5529,5.551,5.5575,5.5558,5.5677,5.5771,5.5688,5.5865,5.5885,5.5955,5.5989,5.5994,5.6189,5.619,5.6195,5.6205,0,0,0,5.5498,5.5506,5.553,5.5556,5.5633,5.5769,5.5799,5.587,5.5898,5.5986,5.5994,5.6188,5.619,5.6194,5.6202,5.625,0,0,0,5.5455,5.5532,5.553,5.5625,5.5631,5.5773,5.5798,5.5904,5.598,5.599,5.6189,5.619,5.6193,5.6201,5.6248,5.6284,5.6296,0,0,5.5535,5.5541,5.5599,5.5602,5.5737,5.5747,5.5883,5.5981,5.6016,5.613,5.6136,5.6196,5.6202,5.6249,5.6377,5.6386,0,0,0,5.5614,5.5655,5.5698,5.577,5.5848,5.5916,5.5997,5.6034,5.6132,5.6069,5.6227,5.6232,5.6261,5.6279,5.6287,5.6314,5.6198,5.6198,5.6197,5.5681,5.5725,5.5824,5.589,5.596,5.6044,5.6104,5.6168,5.6189,5.6226,5.626,5.6332,5.6353,5.6359,5.6386,5.6283,5.6283,5.6283,5.6283,5.5801,5.5867,5.5897,5.6004,5.605,5.614,5.6225,5.6238,5.6328,5.631,5.6338,5.6314,5.6368,5.6394,5.6284,5.6284,5.6284,5.6284,5.6284,5.5849,5.5889,5.5934,5.6044,5.6124,5.6188,5.6274,5.6312,5.6348,5.6376,5.6415,5.6415,5.642,5.6392,5.6393,5.6393,5.6393,5.6393,5.6393,5.5881,5.5932,5.6,5.6092,5.6144,5.6218,5.6305,5.6357,5.6424,5.6445,5.6446,5.6464,5.6366,5.634,5.6397,5.6397,5.6396,5.6396,5.6396,5.5986,5.5969,5.6074,5.6127,5.6238,5.6315,5.6364,5.6467,5.6516,5.6557,5.6571,5.6493,5.6501,5.6494,5.6473,5.6562,5.6562,5.6562,5.6562,5.6025,5.6034,5.6152,5.6234,5.6318,5.6374,5.6491,5.656,5.6628,5.6661,5.6654,5.663,5.6622,5.6635,5.6625,5.6606,5.6726,5.6726,5.6727,5.6092,5.6111,5.6204,5.6272,5.6363,5.6439,5.6551,5.6643,5.6717,5.6734,5.6688,5.6681,5.6642,5.6627,5.6641,5.6626,5.6591,0,0]}]]